Date String (YYYY-MM-DD hh:mm:ss) UTC,Instrument flags,absolute air pressure of the measurement (hPa),sample flow rate (lpm),inlet stack bypass flow (lpm),air temperature of the measurement (°C),ambient temperature measured by the external sensor (°C),aerosol sample conditioner tube jacket temperature (°C),OPC LED temperature (°C),internal box temperature (°C),relative humidity of the measurement (%),span deviation,mass concentration of particles derived from Lorenz-Mie calculation of OPC scattering (μg/m³),mass concentration of particles derived from Lorenz-Mie calculation of OPC scattering (μg/m³),mass concentration of particles derived from Lorenz-Mie calculation of OPC scattering (μg/m³)
DateTimeUTC,F1_M11,P_M11,Q1_M11,Q2_M11,T1_M11,T2_M11,T3_M11,T4_M11,T5_M11,U1_M11,ZSPAN_M11,X0_M11,X2_M11,X1_M11
2023-12-29 22:00:00,SystemResetWarning,0832.3,5.00,000.00,024.6,023.9,000.0,032.8,025.9,7.1,0000.0,0004.40,0000.84,0000.52
2023-12-29 22:01:00,SystemResetWarning,0832.3,4.99,000.00,024.6,024.0,000.0,032.8,025.9,7.2,0000.0,0004.36,0000.79,0000.51
2023-12-29 22:02:00,SystemResetWarning,0832.3,4.99,000.00,024.7,024.0,000.0,032.8,025.9,7.2,0000.0,0005.20,0000.76,0000.49
2023-12-29 22:03:00,SystemResetWarning,0832.3,4.99,000.00,024.7,023.9,000.0,032.8,025.9,7.3,0000.0,0005.44,0000.76,0000.49
2023-12-29 22:04:00,SystemResetWarning,0832.3,4.99,000.00,024.7,024.0,000.0,032.8,025.9,7.2,0000.0,0005.40,0000.77,0000.50
2023-12-29 22:05:00,SystemResetWarning,0832.3,5.00,000.00,024.7,023.9,000.0,032.8,025.9,7.2,0000.0,0005.31,0000.78,0000.50
2023-12-29 22:06:00,SystemResetWarning,0832.3,5.01,000.00,024.7,023.9,000.0,032.8,025.9,7.3,0000.0,0005.07,0000.75,0000.49
2023-12-29 22:07:00,SystemResetWarning,0832.3,5.00,000.00,024.7,024.0,000.0,032.9,026.0,7.3,0000.0,0005.42,0000.76,0000.49
2023-12-29 22:08:00,SystemResetWarning,0832.3,4.99,000.00,024.7,024.0,000.0,032.9,026.0,7.3,0000.0,0005.43,0000.78,0000.49
2023-12-29 22:09:00,SystemResetWarning,0832.3,4.99,000.00,024.7,024.0,000.0,032.9,025.9,7.3,0000.0,0005.60,0000.78,0000.49
2023-12-29 22:10:00,SystemResetWarning,0832.3,5.00,000.00,024.7,024.0,000.0,032.9,025.9,7.3,0000.0,0004.72,0000.79,0000.49
2023-12-29 22:11:00,SystemResetWarning,0832.3,5.01,000.00,024.7,024.0,000.0,032.9,026.0,7.3,0000.0,0005.02,0000.78,0000.49
2023-12-29 22:12:00,SystemResetWarning,0832.3,4.99,000.00,024.7,024.0,000.0,032.9,026.0,7.3,0000.0,0005.09,0000.77,0000.49
2023-12-29 22:13:00,SystemResetWarning,0832.3,4.99,000.00,024.7,024.0,000.0,032.9,026.0,7.3,0000.0,0004.56,0000.80,0000.49
2023-12-29 22:14:00,SystemResetWarning,0832.3,5.01,000.00,024.7,024.0,000.0,032.9,026.0,7.3,0000.0,0004.34,0000.80,0000.49
2023-12-29 22:15:00,SystemResetWarning,0832.3,5.01,000.00,024.7,024.0,000.0,032.9,026.0,7.3,0000.0,0004.44,0000.78,0000.49
2023-12-29 22:16:00,SystemResetWarning,0832.3,4.99,000.00,024.7,024.0,000.0,032.9,026.0,7.3,0000.0,0005.52,0000.78,0000.49
2023-12-29 22:17:00,SystemResetWarning,0832.3,4.99,000.00,024.7,024.0,000.0,032.9,026.0,7.2,0000.0,0005.57,0000.81,0000.48
2023-12-29 22:18:00,SystemResetWarning,0832.3,5.00,000.00,024.7,024.0,000.0,032.9,026.0,7.2,0000.0,0005.34,0000.86,0000.48
2023-12-29 22:19:00,SystemResetWarning,0832.3,5.00,000.00,024.7,024.0,000.0,032.9,026.0,7.2,0000.0,0006.09,0000.87,0000.47
2023-12-29 22:20:00,SystemResetWarning,0832.3,5.00,000.00,024.7,024.0,000.0,032.9,026.0,7.2,0000.0,0006.06,0000.84,0000.47
2023-12-29 22:21:00,SystemResetWarning,0832.3,5.01,000.00,024.7,024.0,000.0,033.0,026.0,7.3,0000.0,0005.33,0000.84,0000.47
2023-12-29 22:22:00,SystemResetWarning,0832.3,5.00,000.00,024.8,024.0,000.0,033.0,026.0,7.2,0000.0,0005.08,0000.84,0000.47
2023-12-29 22:23:00,SystemResetWarning,0832.3,4.98,000.00,024.8,024.0,000.0,033.0,026.0,7.2,0000.0,0004.44,0000.83,0000.47
2023-12-29 22:24:00,SystemResetWarning,0832.3,5.00,000.00,024.8,024.0,000.0,033.0,026.0,7.1,0000.0,0004.18,0000.84,0000.47
2023-12-29 22:25:00,SystemResetWarning,0832.3,5.00,000.00,024.8,024.0,000.0,033.0,026.0,7.1,0000.0,0003.93,0000.85,0000.47
2023-12-29 22:26:00,SystemResetWarning,0832.3,5.01,000.00,024.8,024.0,000.0,033.0,026.0,7.1,0000.0,0004.04,0000.89,0000.46
2023-12-29 22:27:00,SystemResetWarning,0832.3,5.00,000.00,024.8,024.0,000.0,033.0,026.0,7.0,0000.0,0003.50,0000.91,0000.46
2023-12-29 22:28:00,SystemResetWarning,0832.3,5.00,000.00,024.8,024.0,000.0,033.0,026.0,7.1,0000.0,0003.14,0000.93,0000.47
2023-12-29 22:29:00,SystemResetWarning,0832.3,4.99,000.00,024.8,024.0,000.0,033.0,026.0,7.1,0000.0,0003.22,0000.93,0000.47
2023-12-29 22:30:00,SystemResetWarning,0832.3,4.99,000.00,024.8,024.0,000.0,033.0,026.0,7.0,0000.0,0004.51,0000.89,0000.47
2023-12-29 22:31:00,SystemResetWarning,0832.4,5.00,000.00,024.8,024.0,000.0,033.0,026.0,7.1,0000.0,0005.31,0000.88,0000.47
2023-12-29 22:32:00,SystemResetWarning,0832.3,5.01,000.00,024.8,024.0,000.0,033.0,026.0,7.1,0000.0,0005.39,0000.92,0000.48
2023-12-29 22:33:00,SystemResetWarning,0832.4,5.01,000.00,024.8,024.0,000.0,033.0,026.0,7.1,0000.0,0005.47,0000.95,0000.48
2023-12-29 22:34:00,SystemResetWarning,0832.4,4.99,000.00,024.8,024.0,000.0,033.0,026.0,7.2,0000.0,0005.94,0000.96,0000.48
2023-12-29 22:35:00,SystemResetWarning,0832.3,4.99,000.00,024.8,024.0,000.0,033.0,026.0,7.3,0000.0,0006.11,0000.97,0000.49
2023-12-29 22:36:00,SystemResetWarning,0832.3,5.00,000.00,024.8,024.1,000.0,033.0,026.1,7.2,0000.0,0006.07,0000.95,0000.48
2023-12-29 22:37:00,SystemResetWarning,0832.3,5.00,000.00,024.8,024.1,000.0,033.0,026.1,7.2,0000.0,0006.01,0000.94,0000.47
2023-12-29 22:38:00,SystemResetWarning,0832.3,5.00,000.00,024.9,024.1,000.0,033.0,026.1,7.1,0000.0,0005.92,0000.93,0000.48
2023-12-29 22:39:00,SystemResetWarning,0832.3,5.00,000.00,024.9,024.1,000.0,033.0,026.1,7.2,0000.0,0005.70,0000.88,0000.47
2023-12-29 22:40:00,SystemResetWarning,0832.2,5.00,000.00,024.9,024.1,000.0,033.0,026.1,7.1,0000.0,0005.60,0000.86,0000.46
2023-12-29 22:41:00,SystemResetWarning,0832.2,5.00,000.00,024.9,024.1,000.0,033.1,026.1,7.0,0000.0,0004.75,0000.86,0000.47
2023-12-29 22:42:00,SystemResetWarning,0832.2,5.00,000.00,024.9,024.1,000.0,033.1,026.1,7.0,0000.0,0002.75,0000.86,0000.47
2023-12-29 22:43:00,SystemResetWarning,0832.2,5.00,000.00,024.9,024.1,000.0,033.1,026.1,7.0,0000.0,0002.55,0000.88,0000.46
2023-12-29 22:44:00,SystemResetWarning,0832.2,5.00,000.00,024.9,024.1,000.0,033.1,026.1,6.9,0000.0,0002.52,0000.84,0000.46
2023-12-29 22:45:00,SystemResetWarning,0832.2,5.00,000.00,024.9,024.1,000.0,033.1,026.1,6.8,0000.0,0002.28,0000.84,0000.46
2023-12-29 22:46:00,SystemResetWarning,0832.2,5.00,000.00,024.9,024.1,000.0,033.1,026.1,6.8,0000.0,0001.90,0000.83,0000.47
2023-12-29 22:47:00,SystemResetWarning,0832.2,5.00,000.00,024.9,024.1,000.0,033.1,026.1,6.8,0000.0,0001.92,0000.85,0000.48
2023-12-29 22:48:00,SystemResetWarning,0832.2,5.00,000.00,024.9,024.1,000.0,033.1,026.1,6.9,0000.0,0001.85,0000.83,0000.48
2023-12-29 22:49:00,SystemResetWarning,0832.2,5.00,000.00,024.9,024.1,000.0,033.1,026.1,6.9,0000.0,0002.12,0000.85,0000.48
2023-12-29 22:50:00,SystemResetWarning,0832.2,5.00,000.00,024.9,024.1,000.0,033.1,026.2,6.9,0000.0,0002.11,0000.86,0000.49
2023-12-29 22:51:00,SystemResetWarning,0832.2,5.00,000.00,024.9,024.1,000.0,033.1,026.2,6.9,0000.0,0002.22,0000.86,0000.49
2023-12-29 22:52:00,SystemResetWarning,0832.2,5.00,000.00,025.0,024.2,000.0,033.1,026.2,7.0,0000.0,0002.62,0000.85,0000.48
2023-12-29 22:53:00,SystemResetWarning,0832.3,5.00,000.00,025.0,024.2,000.0,033.1,026.2,7.0,0000.0,0002.63,0000.85,0000.48
2023-12-29 22:54:00,SystemResetWarning,0832.3,5.00,000.00,025.0,024.2,000.0,033.1,026.2,7.0,0000.0,0002.62,0000.82,0000.47
2023-12-29 22:55:00,SystemResetWarning,0832.3,5.00,000.00,025.0,024.2,000.0,033.1,026.3,7.1,0000.0,0002.63,0000.83,0000.46
2023-12-29 22:56:00,SystemResetWarning,0832.3,5.00,000.00,025.0,024.3,000.0,033.2,026.3,7.0,0000.0,0002.56,0000.83,0000.47
2023-12-29 22:57:00,SystemResetWarning,0832.3,5.00,000.00,025.0,024.3,000.0,033.2,026.3,6.9,0000.0,0003.22,0000.82,0000.46
2023-12-29 22:58:00,SystemResetWarning,0832.3,5.00,000.00,025.0,024.3,000.0,033.2,026.3,6.9,0000.0,0003.84,0000.80,0000.46
2023-12-29 22:59:00,SystemResetWarning,0832.3,5.00,000.00,025.1,024.3,000.0,033.2,026.3,6.9,0000.0,0003.80,0000.79,0000.46
